星链-2455 (STARLINK-2455 )

导读

STARLINK-2455是美国太空探索技术公司星链(Starlink)星座中的一颗卫星,于2021年4月7日发射升空,作为星链互联网卫星星座组网的一部分,旨在为全球提供低延迟、高速率的卫星互联网服务,尤其覆盖偏远地区等地面网络难以普及的区域。

基本信息
目录编号:
48117
目录名称:
STARLINK-2455
国际标识:
2021-027AB
轨道中心:
EARTH
卫星名称:
星链-2455
卫星全名:
星链-2455 (STARLINK-2455 )
卫星状态:
在轨 (已飞行1898 天)
发射日期:
2021-04-07 UTC
国别 :
美国 (US)
星等 :
--
轨道信息
数据来源 国际轨道数据 AOE轨道数据
星历时间 2026-06-18T06:29:08+0800
17小时前
查看轨道信息
2026-06-14T23:00:00+0800
4天前
查看轨道信息
半长轴 6848.875km 6848.842km
偏心率 0.0001027 0.0000771
轨道倾角 53.161° 53.161°
近地点辐角 76.143° 113.703°
升交点赤经 46.125° 61.544°
平近点角 283.969° 334.144°
近地点 470.034km 470.176km
远地点 471.442km 471.234km
周期 94.013分钟 94.012分钟
每日圈数 15.317008 15.317118
详细信息
固有亮度:
5
最大亮度:
2.5
卫星平台:
Starlink V1.0
覆盖范围:
全球
运营商:
太空探索技术公司
运营商所在国:
美国
制造商(研发单位):
太空探索技术公司
制造商所在国:
美国
使用方式:
暂无
卫星简介
星链(Starlink)计划是由太空探索技术公司(SpaceX)提出的一个巨型低轨卫星互联网星座项目,计划在2019年至2024年间在太空搭建由约1.2万颗卫星组成的“星链”网络,其中1584颗将部署在地球上空550千米处的近地轨道,并从2020年开始工作。该卫星仍在工作。
2D轨道图
3D轨道图
轨道高度分析图
轨道倾角分析图
轨道综合分析图
查看轨道综合分析图